Probability
0 0 0 0 0 0 0 0 0 0 0 0 0 0 0 0 0 0 0 0 0 0 0 0 0 0 0 0 0 0 0 0 0 0 0 0 0 0 0 0 0 0 0
0 0 0 0 0 0 0 0 0 0 0 0 0 0 0 0 0 0 0 0 0 0 0 0 0 0 0 0 0 0 0 0 0 0 0 0 0 0 0 0 0 0 0
0 0 0 0 0 0 0 0 0 0 0 0 0 0 0 0 0 0 0 0 0 0 0 0 0 0 0 0 0 0 0 0 0 0 0 0 0 0 0 0 0 0 0
0 0 0 0 0 0 0 0 0 0 0 0 0 0 0 0 0 0 0 0 0 0 0 0 0 0 0 0 0 0 0 0 0 0 0 0 0 0 0 0 0 0 0
0 0 0 0 0 0 0 0 0 0 0 0 0 0 0 0 0 0 0 0 0 0 0 0 0 0 0 0 0 0 0 0 0 0 0 0 0 0 0 0 0 0 0
0 0 0 0 0 0 0 0 0 0 0 0 0 0 0 0 0 0 0 0 0 0 0 0 0 0 0 0 0 0 0 0 0 0 0 0 0 0 0 0 0 0 0
0 0 0 0 0 0 0 0 0 0 0 0 0 0 0 0 0 0 0 0 0 0 0 0 0 0 0 0 0 0 0 0 0 0 0 0 0 0 0 0 0 0 0
0 0 0 0 0 0 0 0 0 0 0 0 0 0 0 0 0 0 0 0 0 0 0 0 0 0 0 0 0 0 0 0 0 0 0 0 0 0 0 0 0 0 0
0 0 0 0 0 0 0 0 0 0 0 0 0 0 0 0 0 0 0 0 0 0 0 0 0 0 0 0 0 0 0 0 0 0 0 0 0 0 0 0 0 0 0
0 0 0 0 0 0 0 0 0 0 0 0 0 0 0 0 0 0 0 0 0 0 0 0 0 0 0 0 0 0 0 0 0 0 0 0 0 0 0 0 0 0 0
0 0 0 0 0 0 0 0 0 0 0 0 0 0 0 0 0 0 0 0 0 0 0 0 0 0 0 0 0 0 0 0 0 0 0 0 0 0 0 0 0 0 0
0 0 0 0 0 0 0 0 0 0 0 0 0 0 0 0 0 0 0 0 0 0 0 0 0 0 0 0 0 0 0 0 0 0 0 0 0 0 0 0 0 0 0
0 0 0 0 0 0 0 0 0 0 0 0 0 0 0 0 0 0 0 0 0 0 0 0 0 0 0 0 0 0 0 0 0 0 0 0 0 0 0 0 0 0 0
0 0 0 0 0 0 0 0 0 0 0 0 0 0 0 0 0 0 0 0 0 0 0 0 0 0 0 0 0 0 0 0 0 0 0 0 0 0 0 0 0 0 0
0 0 0 0 0 0 0 0 0 0 0 0 0 0 0 0 0 0 0 0 0 0 0 0 0 0 0 0 0 0 0 0 0 0 0 0 0 0 0 0 0 0 0
0 0 0 0 0 0 0 0 0 0 0 0 0 0 0 0 0 0 0 0 0 0 0 0 0 0 0 0 0 0 0 0 0 0 0 0 0 0 0 0 0 0 0
0 0 0 0 0 0 0 0 0 0 0 0 0 0 0 0 0 0 0 0 0 0 0 0 0 0 0 0 0 0 0 0 0 0 0 0 0 0 0 0 0 0 0
0 0 0 0 0 0 0 0 0 0 0 0 0 0 0 0 0 0 0 0 0 0 0 0 0 0 0 0 0 0 0 0 0 0 0 0 0 0 0 0 0 0 0
0 0 0 0 0 0 0 0 0 0 0 0 0 0 0 0 0 0 0 0 0 0 0 0 0 0 0 0 0 0 0 0 0 0 0 0 0 0 0 0 0 0 0
0 0 0 0 0 0 0 0 0 0 0 0 0 0 0 0 0 0 0 0 0 0 0 0 0 0 0 0 0 0 0 0 0 0 0 0 0 0 0 0 0 0 0
0 0 0 0 0 0 0 0 0 0 0 0 0 0 0 0 0 0 0 0 0 0 0 0 0 0 0 0 0 0 0 0 0 0 0 0 0 0 0 0 0 0 0
0 0 0 0 0 0 0 0 0 0 0 0 0 0 0 0 0 0 0 0 0 0 0 0 0 0 0 0 0 0 0 0 0 0 0 0 0 0 0 0 0 0 0
0 0 0 0 0 0 0 0 0 0 0 0 0 0 0 0 0 0 0 0 0 0 0 0 0 0 0 0 0 0 0 0 0 0 0 0 0 0 0 0 0 0 0
0 0 0 0 0 0 0 0 0 0 0 0 0 0 0 0 0 0 0 0 0 0 0 0 0 0 0 0 0 0 0 0 0 0 0 0 0 0 0 0 0 0 0
0 0 0 0 0 0 0 0 0 0 0 0 0 0 0 0 0 0 0 0 0 0 0 0 0 0 0 0 0 0 0 0 0 0 0 0 0 0 0 0 0 0 0
0 0 0 0 0 0 0 0 0 0 0 0 0 0 0 0 0 0 0 0 0 0 0 0 0 0 0 0 0 0 0 0 0 0 0 0 0 0 0 0 0 0 0
Wind_Speed
4 2 1 2 4 5 7 8 9 9 8 6 5 5 3 2 2 2 2 3 3 3 3 2 1 2 1 1 1 1 1 1 1 2 4 4 4 3 3 3 3 3 3
4 3 3 3 4 5 6 7 8 9 8 6 4 3 4 3 2 2 3 3 3 2 2 2 1 1 1 1 1 1 0 1 0 0 2 4 5 4 3 2 3 3 3
9 6 5 4 4 5 6 7 8 8 8 7 6 5 4 3 2 2 2 2 2 3 3 2 2 2 1 1 1 1 2 1 1 1 1 1 3 4 4 3 3 3 3
7 7 6 5 5 5 5 6 7 8 8 8 8 7 5 4 3 2 2 2 3 3 3 3 3 2 2 1 1 1 1 2 1 1 2 3 2 3 5 4 3 4 4
9 9 7 6 5 5 5 6 7 7 7 7 8 7 5 4 3 3 3 3 2 3 3 3 2 2 1 1 1 0 1 2 2 2 2 2 2 4 5 6 4 4 4
7 7 6 5 5 5 5 6 8 6 6 7 7 8 8 7 6 4 3 2 1 1 2 2 2 1 1 1 1 1 2 2 3 2 3 3 3 3 4 6 6 6 4
9 9 9 8 7 7 7 7 8 7 6 7 6 7 7 7 7 5 4 3 2 1 1 1 1 1 1 1 1 1 2 2 3 3 3 4 4 4 4 5 6 6 4
9 10 10 9 8 8 8 8 8 7 7 7 6 6 6 5 4 4 4 3 2 2 2 1 1 1 1 1 1 1 2 2 3 4 4 4 4 4 4 4 4 7 5
10 10 9 9 9 9 9 9 9 7 7 7 7 6 6 5 5 4 3 3 2 2 2 1 1 1 1 1 1 2 3 3 4 4 5 4 4 4 4 4 4 5 7
8 8 9 9 8 8 7 7 8 8 7 7 6 5 5 5 5 5 4 3 3 2 2 1 1 1 2 2 2 3 3 4 4 4 5 5 4 4 4 5 5 6 7
10 10 9 8 7 7 7 7 7 7 7 7 6 6 5 5 5 4 4 4 3 3 2 2 2 2 3 3 3 4 4 5 5 5 5 7 6 5 5 5 5 6 6
7 7 8 8 8 9 8 8 8 8 8 7 7 6 6 5 5 4 4 4 3 3 3 2 3 3 4 4 4 5 5 5 6 6 6 7 6 6 6 5 6 7 7
6 7 8 9 10 10 9 9 9 8 7 7 7 7 6 6 5 5 4 3 3 3 3 3 4 4 5 5 5 6 6 6 7 7 7 8 7 8 6 7 7 7 8
7 8 9 10 10 10 10 10 9 8 8 8 8 7 7 6 6 5 4 4 3 3 4 4 4 5 5 6 6 6 7 7 8 8 8 8 8 9 8 7 8 8 8
8 10 10 10 9 10 9 9 9 9 9 9 8 7 6 5 5 4 4 4 4 4 4 4 5 5 5 6 7 7 8 8 8 8 8 9 11 14 12 10 8 8 7
9 9 9 9 11 11 11 10 10 9 9 9 8 6 6 5 5 4 4 3 4 4 4 5 5 6 6 11 15 12 7 7 8 8 8 9 11 15 19 21 20 16 11
8 9 10 10 11 11 11 12 10 9 9 8 7 6 6 5 5 4 4 4 4 4 5 6 6 7 10 15 17 18 10 7 7 8 8 8 9 14 8 15 20 19 22
7 7 7 7 7 7 7 8 8 9 8 7 6 6 6 5 4 4 4 5 4 4 5 6 7 7 10 16 18 19 11 7 8 8 9 9 9 10 11 10 10 11 12
5 5 5 5 6 7 8 9 8 7 7 7 7 6 6 5 4 5 5 4 4 5 6 6 7 8 11 16 18 19 7 7 8 9 9 10 10 17 21 14 11 11 10
2 3 4 5 6 6 8 9 8 7 7 7 6 5 5 5 5 6 5 4 4 6 6 7 7 8 9 15 19 19 6 7 8 7 9 16 17 20 22 13 10 13 11
3 4 5 5 5 7 8 8 7 7 6 5 4 4 4 5 5 4 4 4 5 5 6 8 8 8 11 14 18 19 8 7 8 7 6 8 19 22 23 20 12 15 16
4 5 5 4 4 6 7 7 6 4 4 4 4 4 4 3 3 4 5 5 5 6 7 7 8 7 8 12 15 19 18 17 10 8 6 9 20 23 24 18 17 23 20
4 4 5 5 4 4 5 6 4 4 4 3 3 3 3 4 4 4 5 5 4 5 6 6 8 8 6 9 18 20 21 22 13 9 17 21 24 22 15 17 22 18 7
4 4 5 5 4 3 3 4 4 4 4 3 3 3 3 4 4 4 4 5 5 6 6 7 8 8 7 6 7 8 10 15 13 11 15 22 22 17 16 15 11 6 6
3 4 5 5 4 3 3 3 3 4 3 3 3 3 4 4 5 5 5 6 7 8 8 7 8 9 10 11 17 14 8 7 9 11 8 7 6 6 6 6 6 6 6
4 4 4 4 3 3 3 2 3 3 3 3 4 3 4 4 4 5 6 11 13 17 19 20 17 13 18 24 25 24 24 25 24 17 8 7 6 7 7 7 6 6 6
Wind_Direction
238 219 169 136 132 141 152 160 160 160 157 155 152 148 149 142 135 140 137 141 143 149 157 163 155 152 176 205 203 212 255 272 301 321 311 301 298 304 285 280 290 301 309
210 196 168 145 142 147 150 153 158 159 162 159 148 137 131 126 121 114 102 100 116 128 138 144 143 144 148 142 153 159 183 283 35 30 332 329 333 333 312 308 298 302 317
198 190 176 163 145 148 155 155 155 155 151 141 125 108 93 86 94 99 93 77 101 110 114 122 125 122 137 159 175 168 176 231 280 200 200 278 289 304 303 301 296 298 299
187 182 176 168 163 157 147 141 142 145 145 145 148 147 146 149 157 143 124 92 79 92 101 109 113 118 126 140 170 158 171 175 239 271 237 227 228 276 302 301 293 292 287
185 182 178 169 157 148 142 137 133 135 141 146 149 143 133 129 123 115 113 96 71 78 94 106 110 114 122 137 154 166 189 189 205 217 230 247 246 232 253 283 292 294 267
183 174 159 146 142 140 138 138 135 133 140 141 143 144 142 139 136 135 134 119 94 74 78 100 106 117 131 165 198 207 215 216 221 223 213 213 226 229 235 264 280 283 272
176 171 167 167 163 159 155 150 143 140 143 141 143 147 147 149 152 153 153 146 137 136 133 108 120 133 174 205 203 213 236 228 228 233 232 227 231 230 236 262 279 281 281
182 182 180 175 172 169 164 158 153 148 149 146 145 142 143 142 144 149 152 158 165 174 173 155 156 180 210 227 215 229 245 235 238 246 244 242 243 234 231 240 273 293 283
186 185 180 178 177 175 174 168 160 154 156 152 144 143 144 145 147 146 145 150 162 170 169 171 188 227 245 249 243 243 258 254 248 249 251 248 248 243 240 237 233 254 285
188 186 184 184 182 178 170 166 163 161 158 155 153 151 152 151 148 146 154 161 169 170 175 194 217 244 257 259 253 257 259 259 258 250 252 253 250 249 244 240 239 234 255
196 193 188 182 174 168 167 170 168 159 159 160 155 150 153 151 150 156 167 171 176 182 196 213 231 248 257 256 252 256 261 259 264 261 254 256 255 253 251 244 243 244 245
199 190 180 172 174 178 177 177 174 170 169 162 157 157 155 154 159 170 178 178 186 198 210 224 241 252 255 254 251 260 260 257 261 262 259 260 260 254 251 247 248 250 244
194 184 180 184 188 186 184 182 180 176 166 160 158 159 163 167 175 182 186 188 195 212 225 230 243 253 256 257 254 252 256 254 254 255 256 259 258 261 256 250 252 254 257
201 193 195 196 192 188 185 182 181 173 166 163 165 172 179 181 183 186 191 200 205 218 233 240 246 252 257 259 259 256 256 256 255 253 251 253 251 255 259 259 255 254 257
213 205 203 198 190 186 184 182 179 173 168 167 174 183 180 177 180 190 202 210 219 230 237 248 258 259 259 256 254 251 250 251 256 255 251 251 258 263 268 267 257 251 255
225 214 205 197 193 190 186 181 179 175 169 174 181 176 173 179 190 201 208 219 234 243 245 251 257 263 264 276 282 280 257 250 252 257 257 257 269 276 282 284 284 280 274
229 215 206 201 197 191 183 182 177 166 169 175 175 175 178 188 201 205 212 228 239 243 253 256 256 260 267 281 286 287 283 259 253 254 258 266 267 282 272 278 283 283 281
224 213 201 196 188 176 168 160 155 162 169 173 177 180 183 195 202 209 226 237 238 244 251 256 257 261 271 284 289 292 286 266 258 254 254 259 263 264 272 262 260 258 261
210 201 189 177 163 160 155 148 153 159 167 179 186 188 187 194 205 221 235 239 242 251 252 255 259 262 273 285 291 293 276 265 262 258 257 262 259 270 281 280 272 270 264
161 151 140 136 147 152 146 148 157 165 184 190 191 188 188 196 212 227 239 241 241 252 259 262 259 259 266 281 289 291 275 269 269 263 257 269 275 279 283 279 273 275 274
119 124 129 136 147 144 143 152 163 186 190 177 175 186 196 206 220 232 240 247 253 261 264 268 269 263 266 279 285 288 282 267 271 270 263 258 279 285 286 285 278 278 285
120 127 129 129 134 144 148 158 181 182 160 163 179 199 210 220 224 234 251 252 254 265 271 274 277 267 266 275 280 284 284 285 280 275 269 268 283 285 287 288 285 288 294
137 133 135 132 136 151 156 167 178 159 158 170 197 215 226 232 230 234 250 259 253 258 270 272 278 278 265 267 280 286 288 289 285 274 280 285 289 292 291 287 289 292 288
150 140 140 146 159 164 161 166 164 161 164 193 219 228 237 249 245 240 242 249 254 258 265 270 274 278 273 263 263 266 276 281 281 280 280 286 288 287 286 288 289 278 263
152 150 158 164 171 164 168 170 169 164 183 213 232 243 243 248 257 251 243 248 241 244 260 263 263 276 280 275 281 284 276 268 265 277 271 268 270 267 266 267 267 261 263
151 151 160 164 169 169 183 191 186 181 192 230 245 247 251 254 256 266 277 263 262 272 273 274 274 274 277 288 291 292 292 293 292 291 280 276 273 275 276 277 274 265 260